Palos Park, Illinois, United States (60464)
Lat: 41.67N, Lon: 87.83W
Wx Zone: ILZ014
Local Info
Past Weather Observations for Saturday, April 19, 2014

NOTE: This archive is for the closest National Weather Service station to Palos Park. Information may differ from the station used for current weather conditions.

Time Weather Temperature Dewpoint Humidity Pressure Winds Precip Visibility
23:51
Partly Cloudy
55°F / 13°C 34°F / 1°C 44% 30.24 in
(1024 mb)
SSE 10.4 mph
(SSE 17 kph)
- 10SM
22:51
Mostly Cloudy
55°F / 13°C 36°F / 2°C 47% 30.24 in
(1024 mb)
SE 10.4 mph
(SE 17 kph)
- 10SM
21:51
Mostly Cloudy
57°F / 14°C 36°F / 2°C 44% 30.24 in
(1024 mb)
SE 12.7 mph
(SE 20 kph)
- 10SM
20:51
Mostly Cloudy
55°F / 13°C 37°F / 3°C 51% 30.24 in
(1024 mb)
SE 9.2 mph
(SE 15 kph)
- 10SM
19:51
Mostly Cloudy
54°F / 12°C 37°F / 3°C 54% 30.24 in
(1024 mb)
E 8.1 mph
(E 13 kph)
- 10SM
18:51
Mostly Cloudy
55°F / 13°C 37°F / 3°C 51% 30.24 in
(1024 mb)
E 6.9 mph
(E 11 kph)
- 10SM
17:51
Overcast
59°F / 15°C 37°F / 3°C 45% 30.24 in
(1024 mb)
ESE 9.2 mph
(ESE 15 kph)
- 10SM
16:51
Overcast
61°F / 16°C 37°F / 3°C 42% 30.24 in
(1024 mb)
E 12.7 mph
(E 20 kph)
- 10SM
15:51
Overcast
63°F / 17°C 37°F / 3°C 39% 30.24 in
(1024 mb)
E 10.4 mph
(E 17 kph)
- 10SM
14:51
Mostly Cloudy
63°F / 17°C 39°F / 4°C 42% 30.27 in
(1025 mb)
E 9.2 mph
(E 15 kph)
- 10SM
13:51
Mostly Cloudy
61°F / 16°C 39°F / 4°C 45% 30.3 in
(1026 mb)
E 9.2 mph
(E 15 kph)
- 10SM
12:51
Mostly Cloudy
61°F / 16°C 39°F / 4°C 45% 30.3 in
(1026 mb)
E 10.4 mph
(E 17 kph)
- 10SM
11:51
Mostly Cloudy
57°F / 14°C 39°F / 4°C 51% 30.33 in
(1027 mb)
ENE 9.2 mph
(ENE 15 kph)
- 10SM
10:51
Mostly Cloudy
54°F / 12°C 39°F / 4°C 58% 30.33 in
(1027 mb)
Variable 6.9 mph
(Variable 11 kph)
- 10SM
09:51
Mostly Cloudy
50°F / 10°C 37°F / 3°C 62% 30.36 in
(1028 mb)
ENE 4.6 mph
(ENE 7 kph)
- 10SM
08:51
Partly Cloudy
48°F / 9°C 37°F / 3°C 66% 30.39 in
(1029 mb)
E 6.9 mph
(E 11 kph)
- 10SM
07:51
Partly Cloudy
45°F / 7°C 36°F / 2°C 71% 30.39 in
(1029 mb)
E 10.4 mph
(E 17 kph)
- 10SM
06:51
Partly Cloudy
43°F / 6°C 34°F / 1°C 71% 30.39 in
(1029 mb)
E 10.4 mph
(E 17 kph)
- 10SM
05:51
Partly Cloudy
39°F / 4°C 32°F / 0°C 75% 30.36 in
(1028 mb)
ENE 11.5 mph
(ENE 19 kph)
- 10SM
04:51
Partly Cloudy
37°F / 3°C 32°F / 0°C 81% 30.36 in
(1028 mb)
NE 8.1 mph
(NE 13 kph)
- 10SM
03:51
Clear
37°F / 3°C 30°F / -1°C 75% 30.36 in
(1028 mb)
NE 6.9 mph
(NE 11 kph)
- 10SM
02:51
Partly Cloudy
39°F / 4°C 30°F / -1°C 70% 30.36 in
(1028 mb)
ENE 9.2 mph
(ENE 15 kph)
- 10SM
01:51
Partly Cloudy
39°F / 4°C 30°F / -1°C 70% 30.36 in
(1028 mb)
ENE 9.2 mph
(ENE 15 kph)
- 10SM
00:51
Clear
39°F / 4°C 28°F / -2°C 65% 30.36 in
(1028 mb)
ENE 9.2 mph
(ENE 15 kph)
- 10SM
Time Weather Temperature Dewpoint Humidity Pressure Winds Precip Visibility


Weather for websites

WeatherForYou.com, LLC is not responsible for any damages or problems caused by this service. Current weather conditions are obtained from the closest station including government and personal stations which may have varying degrees of accuracy. Weather forecasts are derived from the NOAA NDFD. Like all things, this site belongs to Jesus Christ... He just trusts me to maintain it. If you have any questions or comments email webmaster@weatherforyou.com

Copyright © 2014, WeatherForYou.com LLC. All rights reserved.